SCP
0 0 0 0 0 0 0 0 0 0 0 0 0 0 0 0 0 0 0 0 0 0 0 0 0 0 0 0 0 0 0 0 0 0 0 0 0 0
0 0 0 0 -0 -0 0 0 0 0 0 0 0 0 0 0 0 0 0 0 0 0 0 0 0 0 0 0 0 0 0 0 0 0 0 0 0 0
0 0 0 0 0 0 0 0 0 0 0 0 0 0 0 0 0 0 0 0 0 0 0 0 0 0 0 0 0 0 0 0 0 0 0 0 0 0
0 0 0 0 0 0 0 0 0 0 0 0 0 0 0 0 0 0 0 0 0 0 0 0 0 0 0 0 0 0 0 0 0 0 0 0 0 0
0 0 0 0 0 0 0 0 0 0 0 0 0 0 0 0 0 0 0 0 0 0 0 0 0 0 0 0 0 0 0 0 0 0 0 0 0 0
0 0 0 0 0 0 0 0 0 0 0 0 0 0 0 0 0 0 0 0 0 0 0 0 0 0 0 0 0 0 0 0 0 0 0 0 0 0
1 1 0 0 0 0 0 0 0 0 0 0 0 0 0 0 0 0 0 0 0 0 0 0 0 0 0 0 0 0 0 0 0 0 0 0 0 0
1 1 1 0 0 0 0 0 0 0 0 0 0 0 0 0 0 0 0 0 0 0 0 0 0 0 0 0 0 0 0 0 0 0 0 0 0 0
1 1 1 1 0 0 0 0 0 0 0 0 0 0 0 0 0 0 0 0 0 0 0 0 0 0 0 0 0 0 0 0 0 0 0 0 0 0
1 1 1 1 1 1 0 0 0 0 0 0 0 0 0 0 0 0 0 0 0 0 0 0 0 0 0 0 0 0 0 0 0 0 0 0 0 0
1 1 1 1 1 0 0 1 1 0 0 0 0 0 0 0 0 0 0 0 0 0 0 0 0 0 0 0 0 0 0 0 0 0 0 0 0 0
0 0 0 0 0 0 0 0 1 1 0 0 0 0 0 0 0 0 0 0 0 0 0 0 0 0 0 0 0 0 0 0 0 0 0 0 0 0
0 0 0 0 0 0 0 0 0 0 0 0 0 0 0 0 0 0 0 0 0 0 0 0 0 0 0 0 0 0 0 0 0 0 0 0 0 0
0 0 0 0 0 0 0 0 0 0 0 0 0 0 0 0 0 0 0 0 0 0 0 0 0 0 0 0 0 0 0 0 0 0 0 0 0 0
0 0 0 0 0 0 0 0 0 0 0 0 0 0 0 0 0 0 1 1 0 0 0 0 0 0 0 0 0 0 0 0 0 0 0 0 0 0
0 0 0 0 0 0 0 0 0 0 0 0 0 0 0 0 0 0 0 0 0 0 0 0 0 0 0 0 0 0 0 0 0 0 0 0 0 0
0 0 0 0 0 0 0 0 0 0 0 0 0 0 0 0 0 0 0 0 0 0 0 0 0 0 0 0 0 0 0 0 0 0 0 0 0 0
0 0 0 0 0 0 0 0 0 0 0 0 0 0 0 0 0 0 0 0 0 0 0 0 0 0 0 0 0 0 0 0 0 0 0 0 0 0
0 0 0 0 0 0 0 0 0 0 0 0 0 0 0 0 0 0 0 0 0 0 0 0 0 0 0 0 0 0 0 0 0 0 0 0 0 0
0 0 0 0 0 0 0 0 0 0 0 0 0 0 0 0 0 0 0 0 0 0 0 0 0 0 0 0 0 0 0 0 0 0 0 0 0 0
0 0 0 0 0 0 0 0 0 0 0 0 0 0 0 0 0 0 0 0 0 0 0 0 0 0 0 0 0 0 0 0 0 0 0 0 0 0
0 0 0 0 0 0 0 0 0 0 0 0 0 0 0 0 0 0 0 0 0 0 0 0 0 0 0 0 0 0 0 0 0 0 0 0 0 0
0 0 0 0 0 0 0 0 0 0 0 0 0 0 0 0 0 0 0 0 0 0 0 0 0 0 0 0 0 0 0 0 0 0 0 0 0 0
Wind_Speed
3 3 2 2 2 2 2 1 2 3 3 0 1 2 3 3 6 3 2 7 9 9 8 8 7 7 7 6 7 7 8 8 9 10 10 11 12 14
3 2 1 3 2 1 1 2 2 2 3 2 2 1 2 1 4 2 3 6 12 12 12 11 10 9 9 8 8 8 8 9 9 9 10 10 11 12
4 4 4 3 3 3 2 2 2 2 3 3 3 1 1 3 2 3 4 4 6 14 15 14 13 12 11 10 10 10 10 9 9 9 9 10 11 12
5 5 4 4 5 4 3 4 3 3 3 4 4 3 4 4 5 5 5 7 5 8 13 15 15 14 13 12 12 12 11 11 11 10 10 10 11 11
6 6 6 5 5 4 4 4 3 4 3 4 4 4 4 4 4 5 6 5 7 8 11 15 15 15 15 15 14 14 13 13 13 12 12 11 11 11
6 6 6 6 6 6 6 6 5 5 4 4 5 5 5 5 4 4 4 4 6 7 5 7 13 17 18 17 16 16 15 15 14 14 13 13 13 12
7 7 8 9 9 7 7 5 5 5 4 5 5 4 4 3 3 3 4 4 4 4 4 4 5 7 9 14 17 17 17 17 16 15 15 14 14 14
8 7 8 9 11 13 13 12 9 7 6 5 5 6 5 4 3 3 3 3 4 3 3 4 3 4 5 6 13 18 19 18 17 17 16 16 15 15
6 6 8 10 10 10 13 16 15 16 14 9 9 9 7 5 4 5 4 5 5 4 3 5 4 5 5 7 12 14 17 18 18 18 18 17 17 16
7 7 8 9 10 8 8 9 11 12 14 13 12 13 11 8 7 7 7 7 6 6 6 7 6 6 7 6 10 12 14 17 18 18 18 18 17 17
8 9 10 9 12 13 10 10 10 9 14 17 18 18 18 17 11 6 6 6 8 7 6 7 7 6 6 6 8 13 15 17 18 18 18 18 18 15
7 9 13 12 12 12 10 10 12 11 10 11 11 14 15 15 16 12 10 9 9 8 6 6 6 5 6 5 5 5 8 13 17 17 18 18 16 9
6 6 5 6 8 9 9 9 13 11 8 9 9 8 9 10 11 12 12 12 12 11 7 6 6 5 5 5 4 4 5 5 7 9 15 18 17 13
6 6 5 7 9 10 10 12 15 12 9 9 9 9 9 9 9 11 13 15 14 14 10 7 5 5 5 6 5 4 5 5 6 6 7 12 16 18
7 10 11 13 13 10 13 15 12 9 9 10 11 10 9 9 9 9 10 12 14 15 14 12 10 8 7 7 7 6 6 5 5 6 6 6 6 7
6 9 12 14 13 14 13 11 9 10 10 10 10 9 8 8 9 8 8 8 9 10 12 12 12 12 10 9 8 8 7 6 5 6 6 6 5 6
7 7 8 8 8 7 7 7 7 7 9 9 9 10 9 9 9 7 7 7 8 8 8 8 10 11 12 9 9 9 8 7 7 6 6 6 6 6
5 7 9 9 9 9 8 8 7 7 7 7 8 9 9 9 9 8 8 8 9 8 8 7 7 6 7 9 12 11 9 8 7 7 6 7 7 6
6 8 8 7 7 8 8 8 9 8 7 7 8 8 8 8 8 8 8 8 9 8 8 6 7 7 9 10 9 14 12 9 7 7 7 7 8 7
6 7 7 7 7 7 8 8 9 9 9 8 8 8 7 8 8 8 8 9 8 8 7 7 7 8 10 9 7 7 14 11 8 8 7 6 7 8
8 8 8 8 8 7 7 7 8 9 10 10 9 9 8 8 8 8 8 10 9 8 8 8 8 10 7 6 7 7 7 13 13 9 7 6 6 6
8 8 8 8 8 8 8 8 9 9 9 9 9 9 8 8 9 9 8 8 7 7 8 7 6 6 6 8 9 8 8 7 10 15 15 12 8 8
8 8 8 8 8 8 7 8 10 9 9 9 9 9 8 8 7 7 7 7 6 7 7 6 5 5 6 7 8 8 9 9 7 7 8 14 19 19
Wind_Direction
251 216 231 280 254 275 314 322 316 318 328 109 199 155 151 154 164 206 205 198 206 217 224 230 236 242 247 254 257 256 255 254 252 248 245 243 242 241
237 249 248 291 310 279 261 276 283 289 299 320 278 183 148 212 174 225 254 223 216 223 227 227 228 233 239 245 251 254 255 255 253 249 245 243 243 243
237 230 216 236 279 311 300 271 255 254 270 290 303 314 196 218 224 236 255 245 231 230 226 223 223 226 231 236 242 246 249 250 250 249 247 244 242 240
226 235 232 232 216 235 267 280 272 257 248 270 281 275 259 226 217 223 247 261 263 250 222 218 220 223 227 231 235 238 241 242 242 242 244 245 244 242
226 227 228 234 237 232 239 254 268 271 246 250 263 259 254 245 230 229 243 250 262 263 225 218 221 224 228 231 232 234 235 236 237 238 240 243 245 246
235 234 233 230 230 227 237 239 245 259 264 259 256 254 248 239 218 221 244 242 249 261 252 220 219 223 228 230 232 233 232 234 235 236 237 239 241 243
235 236 237 235 236 232 238 236 239 240 249 255 258 259 256 249 237 228 244 253 252 248 252 246 222 218 224 233 236 236 233 231 231 233 234 236 239 241
230 233 239 238 233 229 234 239 238 243 250 255 263 261 263 265 264 262 260 264 269 262 261 265 259 244 232 222 225 227 229 229 229 230 231 233 235 237
251 248 253 254 240 227 227 232 239 240 236 241 254 258 265 270 276 274 266 262 260 265 285 275 266 264 259 265 255 234 225 225 225 226 227 229 231 233
252 255 254 258 264 257 246 237 230 233 231 231 240 247 250 250 251 255 256 262 258 249 239 256 253 250 256 254 256 243 227 223 224 225 226 228 230 232
253 255 254 254 254 254 255 255 251 246 238 232 224 229 234 239 241 251 253 255 261 253 232 240 245 242 241 241 244 237 229 225 225 225 227 228 231 233
254 253 253 254 260 258 252 253 254 253 255 257 241 237 238 240 233 230 238 246 254 257 241 240 246 242 251 241 238 237 229 232 230 230 231 232 231 227
268 271 271 276 269 269 260 256 258 262 261 256 256 248 236 232 230 226 225 231 240 244 241 238 248 244 241 249 245 240 229 229 223 230 233 234 230 216
277 281 293 325 313 293 275 264 264 266 265 260 256 253 248 242 235 229 224 222 226 234 240 241 250 252 257 262 261 255 247 237 229 225 219 223 228 223
279 291 303 303 299 287 268 262 261 258 256 256 256 254 252 251 247 242 234 228 227 231 234 232 237 243 243 250 257 256 259 254 239 235 232 224 214 205
296 304 304 289 278 270 271 264 248 245 247 253 257 259 259 257 254 250 246 239 236 234 231 228 228 230 238 240 245 252 250 251 249 245 239 235 225 213
318 299 289 285 280 275 272 267 260 252 248 251 257 262 262 261 259 255 252 247 244 242 237 229 227 227 229 231 242 244 247 248 244 244 244 248 244 235
295 285 285 284 285 286 285 284 281 275 269 263 260 259 260 261 262 258 254 251 250 247 243 241 236 232 236 238 228 241 246 247 246 242 239 245 250 243
276 280 285 291 298 301 301 301 298 296 291 282 275 269 264 262 261 262 259 256 253 248 243 239 237 233 240 246 235 217 230 238 238 239 237 237 245 244
293 299 302 303 304 306 310 311 311 309 305 299 291 285 279 272 267 263 260 259 258 254 247 238 234 233 237 246 251 240 219 229 236 240 243 243 244 247
313 315 314 313 312 312 313 311 308 305 304 302 295 288 283 277 272 267 264 263 258 256 254 249 241 236 240 245 251 251 239 224 226 230 233 239 247 251
318 317 315 314 315 312 311 311 309 305 303 300 296 292 286 280 277 274 271 268 260 254 255 256 252 243 236 240 248 254 255 248 235 236 237 233 234 240
324 321 317 316 314 310 310 311 310 307 307 306 304 301 296 291 287 281 278 275 274 270 268 268 264 253 247 244 245 250 255 257 252 245 243 237 235 241